Date,TemperatureHighF,TemperatureAvgF,TemperatureLowF,DewpointHighF,DewpointAvgF,DewpointLowF,HumidityHigh,HumidityAvg,HumidityLow,PressureMaxIn,PressureMinIn,WindSpeedMaxMPH,WindSpeedAvgMPH,GustSpeedMaxMPH,PrecipitationSumIn
2013-1-1,32.7,26.6,11.1,26.8,17.8,2.4,84,70,54,30.01,29.88,8,1,11,0.00
2013-1-2,36.7,13.7,2.8,13.5,2.2,-5.8,72,60,34,30.11,29.98,5,0,7,0.01
2013-1-3,39.9,18.2,0.3,15.3,4.6,-10.5,71,56,27,30.14,30.03,9,1,14,0.00
2013-1-4,39.6,27.6,19.4,19.1,13.8,9.3,65,56,40,30.18,30.10,9,1,16,0.01
2013-1-5,44.8,26.6,10.8,23.9,15.3,3.2,76,63,40,30.24,30.02,4,0,7,0.11
2013-1-6,39.6,32.6,25.9,28.1,23.3,16.8,77,68,60,30.17,29.88,10,2,18,0.01
2013-1-7,42.3,27.6,14.5,23.9,17.2,7.2,75,65,43,30.34,30.13,5,1,8,0.00
2013-1-8,57.0,27.0,12.6,34.0,16.9,5.3,81,67,30,30.22,30.11,4,0,6,0.00
2013-1-9,55.2,35.6,22.6,38.0,27.6,17.7,85,73,46,30.39,30.08,7,0,11,0.08
2013-1-10,38.3,31.7,22.3,27.8,23.5,17.4,84,72,61,30.44,30.06,5,1,8,0.00
2013-1-11,61.2,44.5,36.1,52.7,38.1,26.0,90,79,61,30.07,29.80,7,0,9,0.33
2013-1-12,68.4,53.1,35.2,57.3,48.3,31.5,91,84,61,29.95,29.77,7,0,11,0.02
2013-1-13,63.3,56.8,38.7,55.9,51.0,34.8,89,81,68,29.94,29.69,14,2,22,0.30
2013-1-14,38.5,29.9,24.1,34.7,21.3,16.4,86,70,63,30.29,29.94,10,3,14,0.00
2013-1-15,24.1,23.0,21.6,16.7,15.7,14.8,75,73,71,30.24,30.18,5,2,8,0.00
2013-1-16,33.3,30.8,29.3,22.4,19.6,18.3,66,63,56,30.22,29.84,4,1,6,0.00
2013-1-17,36.3,32.2,29.7,25.0,23.3,21.2,79,70,58,30.07,29.82,2,1,4,0.00
2013-1-18,36.5,27.5,13.5,23.5,13.5,4.1,73,57,40,30.35,30.01,10,2,13,0.00
2013-1-19,52.9,39.4,28.2,24.6,19.4,14.5,61,46,25,30.20,29.76,5,3,8,0.00
2013-1-20,42.1,29.7,21.6,29.0,10.4,4.5,61,44,30,30.06,29.74,15,4,25,0.00
2013-1-21,25.7,18.7,8.2,12.2,3.7,-11.7,67,52,36,30.03,29.87,13,3,23,0.00
2013-1-22,18.5,9.1,3.6,-5.1,-11.8,-15.6,44,37,27,30.18,30.03,10,3,15,0.00
2013-1-23,21.4,13.2,3.6,6.4,-4.3,-12.3,64,46,28,30.17,29.93,7,1,12,0.00
2013-1-24,25.3,15.2,8.2,6.7,1.6,-2.9,66,55,39,30.40,29.93,11,3,16,0.00
2013-1-25,25.2,17.8,14.4,13.0,4.2,-3.3,74,55,42,30.34,29.88,5,1,10,0.00
2013-1-26,33.8,23.5,9.7,16.9,12.0,-2.3,76,62,44,30.31,29.96,9,2,14,0.00
2013-1-27,40.5,22.1,2.3,23.1,8.0,-7.0,73,55,38,30.36,30.11,6,1,9,0.13
2013-1-28,47.3,39.9,30.7,44.5,36.0,23.5,90,86,74,30.11,29.90,4,0,8,0.26
2013-1-29,70.0,54.4,45.0,53.6,47.2,42.2,91,78,52,29.95,29.59,9,1,19,0.01
2013-1-30,61.2,53.1,33.1,53.0,45.4,24.7,83,75,66,29.59,28.73,11,2,23,0.45
2013-1-31,33.4,25.2,17.4,24.7,14.2,4.4,74,63,42,29.78,29.32,13,4,24,0.00
2013-2-1,23.9,11.5,2.3,8.9,-4.1,-9.4,70,49,28,30.21,29.78,11,2,17,0.00
2013-2-2,27.9,17.7,1.6,17.6,8.2,-7.6,73,66,59,30.19,29.85,7,1,11,0.00
2013-2-3,26.2,20.7,14.4,16.9,9.9,1.8,74,63,48,29.95,29.76,9,1,15,0.00
2013-2-4,32.0,20.3,4.6,24.4,10.6,-4.6,83,66,44,29.96,29.71,5,0,11,0.01
2013-2-5,35.6,28.6,25.3,24.4,19.8,15.4,83,70,50,29.86,29.73,7,1,9,0.00
2013-2-6,46.4,28.5,12.9,23.3,15.4,5.2,73,59,27,30.17,29.86,8,2,12,0.04
2013-2-7,50.0,32.5,13.1,26.8,19.7,5.5,75,61,39,30.14,29.74,5,1,8,0.00
2013-2-8,38.8,32.0,25.0,34.7,23.4,13.3,85,70,61,30.16,29.66,16,5,22,0.17
2013-2-9,42.1,26.6,17.2,18.0,12.5,7.5,73,56,33,30.30,30.16,10,2,15,0.00
2013-2-10,49.5,34.5,16.9,36.5,21.2,9.2,80,59,34,30.16,29.74,5,0,10,0.02
2013-2-11,59.7,45.5,36.5,43.4,32.3,19.8,85,62,36,29.87,29.65,12,3,24,0.01
2013-2-12,50.4,35.9,24.8,26.7,21.1,-0.2,74,56,36,29.99,29.80,14,2,22,0.00
2013-2-13,33.6,27.2,16.9,26.8,19.7,9.5,81,73,67,29.79,29.61,6,1,8,0.00
2013-2-14,43.3,31.5,18.1,34.6,25.0,11.3,84,77,62,29.84,29.71,9,1,17,0.02
2013-2-15,38.1,29.9,23.0,28.1,22.2,15.0,83,73,60,29.99,29.83,11,1,17,0.00
2013-2-16,39.2,23.5,12.7,20.7,10.2,-0.3,75,58,27,29.97,29.84,11,2,17,0.01
2013-2-17,28.8,16.9,9.5,9.3,2.1,-5.3,66,52,39,30.11,29.91,11,3,15,0.01
2013-2-18,52.0,30.8,8.4,30.3,15.2,-1.0,68,53,32,30.12,29.67,7,1,11,0.00
2013-2-19,46.6,31.4,19.6,35.3,21.9,7.3,82,68,48,29.92,29.55,15,4,21,0.20
2013-2-20,26.2,19.4,15.8,9.4,5.6,1.0,64,54,42,30.13,29.91,11,3,20,0.00
2013-2-21,31.8,22.6,18.9,15.6,9.6,3.8,68,57,49,30.21,30.07,8,3,11,0.00
2013-2-22,41.9,32.1,23.7,35.3,24.5,10.5,85,74,56,30.08,29.80,8,2,13,0.01
2013-2-23,48.0,35.1,25.2,30.1,24.2,16.9,81,66,37,29.87,29.76,8,1,12,0.00
2013-2-24,38.5,28.5,22.6,22.4,16.9,14.2,74,62,43,30.03,29.79,8,2,13,0.00
2013-2-25,48.9,33.6,18.3,28.1,18.2,10.9,80,55,31,30.08,29.88,8,2,11,0.00
2013-2-26,40.5,35.5,31.5,36.9,27.2,16.6,87,73,51,29.88,29.39,10,3,14,0.73
2013-2-27,41.2,36.7,32.0,37.6,31.7,26.2,88,82,75,29.58,29.39,8,1,12,0.28
2013-2-28,36.7,32.8,30.6,29.2,27.0,24.4,83,79,73,29.78,29.53,9,1,14,0.06
2013-3-1,32.2,29.6,24.6,26.7,20.6,14.0,81,69,56,29.91,29.77,8,2,13,0.01
2013-3-2,30.4,25.9,24.1,19.9,16.8,14.7,72,68,58,29.91,29.85,10,4,14,0.00
2013-3-3,28.4,23.0,15.6,16.4,12.4,8.1,73,64,49,29.93,29.86,11,2,14,0.00
2013-3-4,47.7,28.1,12.4,19.6,11.5,5.2,76,54,19,30.03,29.92,6,1,9,0.00
2013-3-5,41.0,34.5,28.6,27.3,20.1,13.8,82,56,43,29.96,29.43,8,3,14,0.02
2013-3-6,47.1,34.8,31.6,37.6,26.9,23.5,86,73,56,30.07,29.43,8,2,13,0.11
2013-3-7,46.9,35.1,30.2,27.3,23.7,22.1,73,63,43,30.19,30.04,8,3,13,0.00
2013-3-8,52.2,38.6,25.3,27.6,22.7,17.0,75,54,32,30.33,30.22,9,2,12,0.00
2013-3-9,61.2,39.5,21.6,33.1,24.5,15.5,82,58,26,30.28,29.98,7,1,11,0.00
2013-3-10,76.3,54.8,38.1,39.7,33.4,27.6,72,48,19,29.99,29.77,6,1,11,0.00
2013-3-11,55.9,49.9,41.0,49.2,41.5,33.7,89,74,47,29.79,29.50,7,1,17,0.38
2013-3-12,41.4,35.9,30.0,34.3,28.5,25.8,86,74,59,29.89,29.69,8,1,13,0.01
2013-3-13,36.0,28.9,25.0,28.7,20.9,14.2,91,72,53,30.11,29.83,13,3,20,0.02
2013-3-14,45.9,31.1,19.2,22.3,16.2,9.8,77,55,33,30.17,30.02,9,2,15,0.00
2013-3-15,53.8,38.2,23.0,37.5,28.1,17.1,88,68,49,30.02,29.74,8,1,10,0.08
2013-3-16,59.4,41.8,31.1,47.7,37.0,26.1,93,83,63,29.89,29.51,12,3,17,0.13
2013-3-17,31.1,30.7,30.2,26.3,25.0,23.7,82,79,76,30.01,29.90,6,2,8,0.00
2013-3-18,39.7,34.6,30.7,37.6,27.8,21.8,92,77,54,30.00,29.63,4,2,6,0.01
2013-3-19,48.4,39.0,30.0,45.9,32.4,18.6,91,78,51,29.79,29.51,4,2,7,0.24
2013-3-20,39.4,33.0,26.1,17.7,13.5,8.6,55,44,36,29.90,29.78,11,4,17,0.00
2013-3-21,30.7,26.4,16.5,16.6,13.2,2.8,66,57,42,29.86,29.78,7,2,11,0.00
2013-3-22,47.5,30.3,18.5,22.3,14.1,8.1,71,53,26,29.91,29.84,11,2,16,0.00
2013-3-23,52.7,34.5,19.8,24.7,18.5,13.5,79,56,26,29.94,29.84,10,2,17,0.00
2013-3-24,36.0,32.1,28.4,27.1,20.5,14.7,81,62,43,29.85,29.32,9,4,15,0.00
2013-3-25,39.6,33.3,31.1,32.3,27.5,25.8,86,79,64,29.73,29.27,11,2,16,0.58
2013-3-26,43.9,35.2,30.4,30.2,25.6,18.5,86,69,43,30.03,29.72,12,5,17,0.08
2013-3-27,48.0,37.2,32.0,29.4,23.1,18.9,75,58,36,30.12,30.01,14,4,21,0.00
2013-3-28,51.1,37.6,28.4,27.7,22.2,16.2,75,55,35,30.18,30.10,14,4,17,0.00
2013-3-29,58.5,39.8,24.3,29.2,23.5,16.1,80,55,26,30.17,30.08,9,2,13,0.00
2013-3-30,62.6,41.3,23.2,35.0,24.0,17.9,88,57,21,30.13,29.86,6,1,24,0.00
2013-3-31,57.6,43.8,35.1,46.4,37.4,28.0,88,78,54,29.86,29.63,5,0,11,0.08
2013-4-1,46.6,39.5,29.3,39.6,22.6,11.5,83,53,28,29.98,29.63,14,4,22,0.00
2013-4-2,47.8,32.0,18.0,21.5,12.4,7.1,71,46,24,30.11,29.97,11,3,14,0.00
2013-4-3,48.9,33.9,19.2,19.9,11.2,1.8,68,41,20,30.27,30.11,14,3,20,0.00
2013-4-4,57.4,36.8,20.3,25.5,13.6,3.8,74,43,18,30.25,29.87,7,1,11,0.00
2013-4-5,62.4,42.5,25.2,35.5,22.6,15.4,82,49,22,30.06,29.84,12,3,18,0.00
2013-4-6,61.7,44.2,24.6,28.3,16.9,8.2,62,37,17,30.14,29.83,8,2,11,0.00
2013-4-7,77.4,59.6,43.7,48.5,38.9,21.1,75,47,32,29.90,29.76,8,2,15,0.00
2013-4-8,75.9,59.8,42.8,51.8,46.3,36.6,82,63,40,29.90,29.78,12,1,15,0.20
2013-4-9,84.4,65.6,47.7,58.8,51.6,44.8,91,64,36,29.99,29.81,11,1,14,0.01
2013-4-10,83.7,67.8,55.9,65.2,57.0,51.1,92,70,49,29.86,29.69,17,2,30,0.22
2013-4-11,71.8,60.1,53.8,60.7,56.0,52.0,95,87,65,29.79,29.47,6,1,11,0.41
2013-4-12,58.5,42.1,0.0,56.5,43.0,31.1,94,68,62,29.79,28.45,9,2,14,0.41
2013-4-13,56.5,40.4,0.0,38.7,33.7,27.0,83,62,47,29.93,28.71,10,2,16,0.00
2013-4-14,70.3,48.7,29.8,42.3,35.0,26.5,94,64,32,30.02,29.83,7,1,10,0.04
2013-4-15,73.0,57.9,41.5,53.8,46.6,37.8,89,67,48,29.93,29.82,7,1,10,0.00
2013-4-16,85.3,62.5,51.3,63.3,53.5,45.8,94,74,42,30.08,29.88,15,2,21,0.40
2013-4-17,69.6,58.7,52.5,58.1,53.5,48.8,96,84,64,30.13,29.92,10,2,14,0.08
2013-4-18,88.3,69.0,51.3,62.8,55.4,49.6,94,66,32,29.94,29.57,9,2,15,0.00
2013-4-19,69.6,52.4,38.8,58.3,41.7,28.0,89,67,56,29.82,29.36,11,3,21,0.46
2013-4-20,48.6,39.3,28.0,31.2,27.4,22.4,83,64,42,30.28,29.81,11,3,17,0.02
2013-4-21,59.0,40.9,24.8,32.7,24.3,17.7,88,56,25,30.44,30.28,8,2,12,0.00
2013-4-22,74.7,51.2,29.8,42.8,33.4,22.3,81,56,23,30.30,30.06,6,1,11,0.00
2013-4-23,76.5,56.7,35.1,48.3,39.1,28.2,82,56,30,30.08,29.81,7,1,12,0.00
2013-4-24,60.1,49.9,31.5,54.4,43.5,28.1,92,79,62,30.08,29.67,11,2,19,0.67
2013-4-25,59.2,43.1,28.9,42.5,32.6,26.9,97,69,45,30.25,30.08,10,2,17,0.01
2013-4-26,67.8,46.8,28.4,40.4,32.1,25.7,93,63,25,30.35,30.24,8,1,31,0.00
2013-4-27,79.0,55.0,33.3,46.0,35.8,28.2,92,57,17,30.26,30.03,9,1,13,0.00
2013-4-28,67.6,56.6,52.2,57.9,52.0,45.0,93,85,68,29.97,29.75,5,0,8,0.87
2013-4-29,70.3,58.8,48.2,57.3,53.8,46.3,95,84,60,29.90,29.78,5,0,8,0.02
2013-4-30,83.3,61.8,44.2,60.3,50.8,43.7,98,73,35,29.99,29.89,6,1,11,0.09
2013-5-1,86.7,65.7,47.5,59.6,52.6,45.8,95,67,33,30.14,29.98,7,1,11,0.00
2013-5-2,82.8,64.7,48.7,56.7,50.8,45.3,91,64,38,30.18,30.02,6,1,11,0.00
2013-5-3,81.9,65.6,49.1,53.4,44.9,33.5,93,55,18,30.06,29.93,8,2,13,0.00
2013-5-4,76.8,62.0,52.2,49.7,42.0,36.8,70,49,34,30.00,29.89,9,2,15,0.00
2013-5-5,77.4,62.3,47.5,44.4,37.9,24.0,75,44,22,29.95,29.82,9,2,13,0.00
2013-5-6,75.0,60.8,54.7,54.6,46.4,28.0,84,60,28,29.91,29.85,8,2,12,0.01
2013-5-7,74.7,61.6,53.6,60.4,52.8,48.5,85,74,51,29.88,29.83,8,2,11,0.11
2013-5-8,79.0,63.2,52.7,55.7,51.6,47.9,87,68,40,29.88,29.81,8,2,11,0.02
2013-5-9,86.4,65.4,47.7,58.2,52.2,44.6,96,67,27,29.91,29.84,9,1,11,0.00
2013-5-10,78.4,64.1,57.4,62.8,58.2,54.2,92,82,56,29.87,29.70,11,1,21,0.78
2013-5-11,62.4,54.4,44.8,58.3,48.4,37.5,93,81,61,29.84,29.71,13,2,21,0.08
2013-5-12,58.5,45.0,35.1,37.7,32.2,27.6,93,63,37,30.00,29.84,11,3,17,0.00
2013-5-13,60.3,44.4,32.5,38.5,31.5,25.7,88,64,28,30.08,29.98,8,2,14,0.00
2013-5-14,81.5,54.8,32.2,55.2,41.6,29.3,95,66,31,30.05,29.73,7,1,11,0.00
2013-5-15,92.1,74.7,55.2,63.0,57.4,50.5,86,57,34,29.74,29.67,9,2,24,0.01
2013-5-16,86.4,70.1,56.5,63.2,58.1,50.8,92,68,34,29.89,29.71,4,0,10,0.48
2013-5-17,86.9,69.4,57.0,63.6,59.5,54.3,94,74,39,30.00,29.88,5,0,7,0.00
2013-5-18,85.1,67.1,55.8,63.4,56.7,51.6,91,71,45,30.01,29.89,6,1,8,0.02
2013-5-19,87.6,70.2,56.5,64.8,60.3,54.5,94,74,44,29.94,29.83,5,0,9,0.01
2013-5-20,90.0,70.8,59.7,70.1,63.5,57.4,93,80,48,29.93,29.82,5,0,9,0.05
2013-5-21,90.9,80.5,65.3,66.0,62.7,58.7,93,57,39,29.85,29.72,5,1,11,0.00
2013-5-22,85.1,72.1,59.9,64.0,59.4,55.6,87,66,45,29.77,29.65,8,1,14,0.12
2013-5-23,79.2,64.4,47.8,63.2,56.0,42.2,91,76,45,29.93,29.68,12,2,21,0.01
2013-5-24,60.3,49.0,37.6,42.8,37.4,33.3,86,66,42,30.21,29.93,11,4,20,0.00
2013-5-25,67.5,50.4,32.4,44.6,37.5,29.6,95,65,35,30.27,30.14,9,2,14,0.00
2013-5-26,76.8,54.4,36.3,45.8,36.0,28.0,93,57,19,30.23,30.10,7,1,10,0.00
2013-5-27,70.7,56.1,43.7,50.5,44.5,36.7,84,67,41,30.15,29.93,7,1,11,0.11
2013-5-28,88.7,71.2,56.8,64.6,58.1,50.1,91,66,40,29.95,29.85,7,1,17,0.02
2013-5-29,91.9,75.0,61.2,63.5,58.9,54.7,84,60,32,29.99,29.89,7,1,15,0.00
2013-5-30,93.4,75.8,60.1,67.4,61.0,55.7,92,64,32,30.08,29.95,4,1,10,0.00
2013-5-31,92.7,72.8,58.6,67.1,61.2,55.9,92,71,39,30.00,29.86,8,1,18,0.39
2013-6-1,88.5,73.9,63.0,68.8,64.2,27.4,93,74,20,29.90,29.69,12,1,16,0.41
2013-6-2,82.9,71.2,63.7,66.6,60.5,54.7,93,71,44,29.81,29.69,7,1,14,0.39
2013-6-3,72.9,62.1,52.2,55.8,51.7,40.1,86,69,49,29.98,29.80,7,2,10,0.00
2013-6-4,82.2,61.3,40.8,52.8,44.5,34.9,87,58,29,30.07,29.96,8,1,11,0.00
2013-6-5,89.4,68.0,51.4,61.6,51.3,41.9,83,57,33,30.03,29.79,6,1,11,0.20
2013-6-6,72.9,66.2,58.6,66.9,61.2,55.6,92,84,70,29.81,29.67,0,0,2,0.57
2013-6-7,70.9,60.6,55.2,56.4,54.0,50.9,94,80,59,29.81,29.71,0,0,2,0.00
2013-6-8,82.8,65.5,51.8,59.0,53.5,49.0,93,68,39,29.98,29.79,0,0,14,0.00
2013-6-9,87.4,71.6,60.3,64.0,59.8,55.6,87,69,40,30.02,29.86,0,0,24,0.00
2013-6-10,84.7,69.8,61.5,67.2,60.8,4.5,91,76,10,29.87,29.66,1,0,12,0.00
2013-6-11,88.3,70.4,61.0,65.3,57.6,27.1,92,69,20,29.85,29.73,2,0,7,0.00
2013-6-12,92.1,77.5,61.9,72.6,66.2,58.8,92,70,46,29.83,29.62,2,0,4,0.00
2013-6-13,78.3,69.2,58.1,70.4,60.1,52.5,93,74,46,29.79,29.42,15,0,19,0.00
2013-6-14,80.2,66.6,55.6,59.4,55.1,51.3,92,68,45,29.97,29.78,11,0,13,0.00
2013-6-15,85.8,66.9,50.2,61.6,55.3,48.1,95,70,36,30.04,29.88,2,0,4,0.00
2013-6-16,82.2,70.7,62.6,66.0,62.3,57.6,89,75,52,29.90,29.83,5,0,11,0.00
2013-6-17,89.4,73.7,63.5,68.5,64.0,59.4,94,74,44,29.88,29.80,6,0,8,0.00
2013-6-18,86.7,70.6,61.3,67.4,61.7,51.1,92,75,49,29.90,29.76,3,0,5,0.00
2013-6-19,86.0,66.9,53.4,57.0,50.2,43.7,82,59,26,30.05,29.89,4,0,8,0.00
2013-6-20,88.0,68.8,50.7,59.9,53.2,47.9,94,63,32,30.13,30.04,2,0,5,0.00
2013-6-21,93.4,72.8,54.1,65.2,58.2,51.9,93,65,32,30.15,30.05,3,0,6,0.00
2013-6-22,93.6,76.2,60.3,69.8,63.6,57.6,92,69,42,30.08,29.96,2,0,8,0.00
2013-6-23,95.2,77.3,61.9,70.9,63.8,57.4,93,67,39,30.05,29.94,4,0,7,0.00
2013-6-24,92.5,74.9,60.8,73.0,64.0,57.6,92,72,42,30.05,29.92,6,0,16,0.00
2013-6-25,94.5,78.0,65.8,73.0,67.8,62.2,91,73,46,29.97,29.79,3,0,8,0.00
2013-6-26,90.7,74.9,65.7,71.4,66.7,61.3,93,77,48,29.84,29.71,10,0,15,0.02
2013-6-27,88.3,73.4,67.3,71.6,66.6,62.1,93,80,51,29.72,29.57,10,0,11,0.00
2013-6-28,85.8,71.6,60.6,69.4,63.2,56.8,92,76,46,29.59,29.45,8,0,13,0.00
2013-6-29,85.1,67.2,58.6,66.0,59.7,56.1,93,78,48,29.60,29.47,8,0,14,0.00
2013-6-30,84.2,69.2,60.3,66.7,61.8,57.6,94,79,52,29.76,29.59,5,0,17,0.01
2013-7-1,85.5,71.7,63.7,65.6,62.1,59.6,90,73,45,29.84,29.73,8,0,10,0.00
2013-7-2,89.4,74.5,65.1,69.5,64.3,61.2,89,72,47,29.95,29.82,3,0,8,0.00
2013-7-3,88.9,74.0,64.6,71.0,66.3,62.4,93,78,49,30.05,29.93,3,0,5,0.00
2013-7-4,80.6,72.4,69.3,69.5,66.3,64.4,90,81,61,30.09,30.02,2,0,4,0.31
2013-7-5,86.2,72.1,67.3,69.1,66.2,63.7,93,82,52,30.06,29.99,3,0,6,0.77
2013-7-6,89.6,75.1,67.8,73.0,67.2,62.2,92,78,51,30.06,29.93,4,0,7,0.18
2013-7-7,86.5,72.9,64.2,67.5,63.2,57.2,92,73,49,30.02,29.92,9,0,14,0.04
2013-7-8,86.9,72.2,63.3,71.0,65.0,58.5,92,79,55,30.04,29.95,5,0,9,0.66
2013-7-9,89.8,74.6,69.1,75.4,68.9,63.7,92,84,55,30.00,29.90,15,0,24,1.23
2013-7-10,94.1,75.1,64.2,76.6,68.6,61.1,94,82,54,29.92,29.73,12,0,27,0.35
2013-7-11,81.9,70.1,58.1,65.1,60.3,52.3,94,73,45,29.93,29.84,4,0,11,0.00
2013-7-12,82.8,68.7,57.0,62.4,57.2,53.2,91,69,46,30.00,29.92,7,0,11,0.00
2013-7-13,89.4,73.8,61.2,68.2,62.4,56.8,89,70,45,30.09,29.98,5,0,9,0.00
2013-7-14,94.1,78.6,64.8,73.1,67.2,62.7,94,71,45,30.17,30.07,3,0,8,0.00
2013-7-15,97.5,81.5,68.2,72.1,68.8,65.5,92,69,41,30.24,30.15,4,0,5,0.00
2013-7-16,98.4,82.2,68.4,74.5,69.6,66.0,93,70,39,30.24,30.16,3,0,5,0.00
2013-7-17,95.5,82.1,69.8,74.9,70.2,67.4,93,71,42,30.23,30.08,4,0,8,0.00
2013-7-18,98.1,81.4,71.6,74.3,70.3,67.4,90,71,42,30.11,29.95,4,0,6,0.00
2013-7-19,95.5,78.5,70.0,75.7,70.8,63.1,94,79,47,29.96,29.82,10,0,19,0.41
2013-8-2,84.9,68.4,63.7,71.4,63.5,61.3,92,86,64,29.89,29.81,0,0,1,4.13
2013-11-6,66.6,55.5,37.8,58.5,48.8,35.6,99,81,49,30.07,29.84,11,2,14,0.64
2013-11-7,45.5,40.1,31.6,41.6,33.2,27.9,97,78,50,30.06,29.90,3,0,8,0.09
2013-11-8,42.6,35.8,27.3,33.5,29.5,24.5,91,79,62,30.19,30.05,0,0,2,0.00
2013-11-9,61.5,44.8,29.1,36.3,32.4,28.1,96,65,39,30.12,29.86,3,1,6,0.00
2013-11-10,44.8,38.4,26.4,36.6,30.2,24.7,93,74,56,30.20,29.92,7,2,13,0.00
2013-11-11,48.9,39.5,25.5,39.5,33.2,24.3,99,80,54,30.15,29.93,0,0,1,0.05
2013-11-12,31.1,24.8,22.1,28.6,18.2,16.0,98,76,70,30.42,30.10,0,0,1,0.02
2013-11-13,43.9,27.4,16.3,24.2,17.4,12.1,88,67,40,30.44,30.24,7,0,11,0.02
2013-11-14,53.4,35.6,26.2,27.6,20.8,15.7,71,56,30,30.24,30.03,5,0,10,0.00
2013-11-15,56.7,39.3,26.4,37.0,27.4,18.0,85,64,33,30.07,29.99,6,0,9,0.00
2013-11-16,61.3,50.5,38.7,51.6,45.7,35.0,92,84,67,30.06,29.84,4,0,8,0.00
2013-11-17,60.3,56.5,50.2,59.0,53.1,39.1,99,89,59,29.85,29.39,9,1,21,0.79
2013-11-18,54.3,44.4,33.3,40.1,34.1,23.5,90,68,47,30.01,29.60,12,1,24,0.02
2013-11-19,46.8,34.1,25.0,30.1,24.1,21.4,86,67,48,30.25,30.01,9,0,13,0.00
2013-11-20,50.2,34.1,25.9,31.6,24.3,18.8,86,69,45,30.26,30.14,4,0,8,0.00
2013-11-21,57.0,45.2,32.5,43.5,36.7,28.0,93,73,51,30.24,30.09,0,0,1,0.14
2013-11-22,52.2,46.1,35.1,51.6,44.0,27.6,99,92,74,30.21,30.01,11,1,16,0.37
2013-11-23,37.6,28.6,18.5,28.0,19.4,3.1,89,69,48,30.33,30.12,14,2,18,0.02
2013-11-24,29.1,19.7,13.1,7.0,4.1,-0.3,65,51,31,30.47,30.32,9,1,16,0.00
2013-11-25,34.3,24.6,21.6,26.0,9.4,5.0,83,52,48,30.37,30.06,4,0,10,0.00
2013-11-26,34.0,30.9,28.6,31.1,28.4,24.0,93,90,83,30.07,29.73,0,0,0,0.07
2013-11-27,29.3,25.7,23.4,26.6,15.0,-12.1,92,65,19,30.07,29.71,12,1,49,0.01
2013-11-28,23.5,23.5,23.5,8.6,8.6,8.6,52,52,52,30.28,30.07,0,0,1,0.01
2013-11-29,47.7,25.3,9.3,22.0,12.2,4.5,82,58,34,30.47,30.27,6,0,2,0.04
2013-11-30,46.2,23.8,17.6,28.5,17.2,-23.4,86,76,48,30.42,30.05,12,0,12,0.04
2013-12-1,46.4,33.5,23.2,33.7,27.6,20.4,94,80,58,30.06,29.83,97,0,4,0.00
2013-12-2,52.7,38.2,31.5,38.2,32.4,28.0,90,80,55,29.84,29.70,2,0,3,0.06
2013-12-3,57.0,42.0,34.0,43.8,37.2,31.9,96,84,61,29.77,29.71,2,0,4,0.05
2013-12-4,61.2,50.3,36.7,50.5,45.3,34.6,98,84,64,29.82,29.67,3,0,8,0.00
2013-12-5,59.9,48.2,32.5,59.1,43.9,29.4,97,85,68,30.00,29.67,9,0,12,0.46
2013-12-6,32.5,29.1,24.6,29.4,26.0,21.8,91,88,84,30.20,29.95,0,0,2,0.06
2013-12-7,30.2,21.0,11.3,21.9,11.9,4.8,89,69,43,30.44,30.19,0,0,0,0.01
2013-12-8,29.7,22.4,13.8,28.4,15.8,6.2,95,75,64,30.40,29.87,0,0,0,0.00
2013-12-9,41.7,30.3,24.4,32.1,24.7,-10.8,97,81,10,30.06,29.82,97,0,11,0.02
2013-12-10,31.8,21.4,14.2,16.5,10.4,2.9,83,63,36,30.17,29.96,5,0,9,0.00
2013-12-11,35.2,19.8,7.2,17.2,8.6,-1.1,76,62,43,30.30,30.10,9,1,15,0.00
2013-12-12,22.6,10.8,4.5,3.4,-13.3,-39.9,64,38,10,30.35,30.14,6,2,6,0.00
2013-12-13,39.6,23.7,12.0,19.4,10.6,0.3,92,58,38,30.15,30.05,0,0,0,0.01
2013-12-14,43.2,32.0,27.5,34.0,29.7,-9.7,95,91,71,30.09,29.57,97,0,97,0.21
2013-12-15,33.6,25.0,21.7,32.3,17.1,7.3,96,73,53,29.95,29.62,5,0,8,0.00
2013-12-16,25.9,22.2,21.7,22.3,10.5,8.5,86,61,56,30.02,29.86,0,0,0,0.00
2013-12-17,32.2,27.7,24.6,30.1,21.3,16.4,92,77,63,29.98,29.82,8,0,13,0.01
2013-12-18,37.4,24.5,14.4,19.9,15.1,5.2,82,68,42,30.09,29.92,8,0,11,0.01
2013-12-19,50.2,36.4,19.0,34.0,24.7,9.8,81,63,47,29.96,29.85,3,0,6,0.00
2013-12-20,53.4,46.1,36.1,52.4,41.1,28.5,99,83,71,29.86,29.74,4,0,7,0.07
2013-12-21,63.9,56.9,53.4,60.7,55.6,51.9,99,95,80,29.75,29.40,9,0,14,1.35
2013-12-22,64.2,54.9,42.4,58.9,49.7,38.3,96,83,65,29.89,29.39,8,1,14,0.66
2013-12-23,42.4,32.9,26.6,39.0,24.5,14.4,94,71,59,30.20,29.86,7,1,14,0.05
2013-12-24,26.6,17.0,8.2,18.7,6.3,-6.7,83,62,48,30.40,30.16,49,1,16,0.00
2013-12-25,32.0,21.8,7.9,22.6,10.7,-0.1,74,63,43,30.37,30.03,6,0,9,0.00
2013-12-26,42.3,30.9,22.1,23.5,19.3,13.7,79,63,40,30.20,30.00,10,1,13,0.00
2013-12-27,49.1,33.6,23.9,30.1,23.8,18.1,84,68,45,30.25,30.13,4,0,6,0.00
2013-12-28,53.8,39.2,32.9,33.4,27.3,23.2,73,63,43,30.13,29.90,4,0,8,0.00
2013-12-29,44.8,37.7,32.7,41.0,33.1,25.3,94,84,68,29.91,29.63,97,0,97,0.38
2013-12-30,32.5,26.3,23.5,27.4,17.0,13.7,81,67,58,30.08,29.82,12,1,99,0.01
2013-12-31,27.5,22.5,17.1,15.9,12.7,9.4,79,66,49,30.18,29.96,7,1,14,0.00
2014-1-1,42.4,28.4,16.2,29.2,20.6,10.9,84,73,55,30.16,29.92,0,0,1,0.00
2014-1-2,27.3,21.1,9.3,21.1,14.7,-1.0,85,76,62,29.99,29.62,17,4,21,0.06